Home > Weather > Bentonville > Past weeks

Flag for USA Past Weather in Bentonville, Arkansas, USA — Yesterday and Last 2 Weeks

Now
72 °F

Thundershowers. Partly cloudy.


Feels Like: 72 °F
Forecast: 69 / 83 °F
Wind: 5 mph from Northeast

Location: Bentonville Weather Observing Station

Current Time: Jun 30, 2016 at 11:28:24 PM

Latest Report: Jun 30, 2016 at 10:55 PM


Visibility: 10 mi

Pressure: 30.04 "Hg

Humidity: 78%

Dew Point: 64 °F

Location of BentonvilleLocation

Past Weather in Bentonville — Graph

°F

Bentonville Temperature Yesterday

Maximum temperature yesterday: 90 °F (at 2:15 PM)
Minimum temperature yesterday: 70 °F (at 3:35 AM)
Average temperature yesterday: 80 °F

High & Low Weather Summary for the Past Weeks

 TemperatureHumidityPressure
High95 °F (Jun 17, 4:55 PM)89% (Jun 16, 3:55 AM)30.28 "Hg (Jun 16, 3:55 AM)
Low64 °F (Jun 28, 4:55 AM)23% (Jun 28, 3:35 PM)29.91 "Hg (Jun 16, 8:15 PM)
Average81 °F63%30.09 "Hg
* Reported Jun 15 10:15 PM — Jun 30 10:15 PM, Bentonville, Weather by CustomWeather, © 2016

Note: Actual official high and low records may vary slightly from our data, if they occured in-between our weather recording intervals... More about our weather records

Advertising

Bentonville Weather History for the Previous 24 Hours

Scroll right to see more
 ConditionsComfort  
Time TempWeatherWind HumidityBarometerVisibility
10:15 PM
Thu, Jun 30
70 °FThunderstorms. Mostly cloudy.9 mph78%30.02 "Hg10 mi
9:55 PM77 °FThunderstorms. Partly cloudy.16 mph65%30.02 "Hg10 mi
9:35 PM81 °FThundershowers. Passing clouds.5 mph58%29.99 "Hg10 mi
9:15 PM81 °FSunny.5 mph58%29.98 "Hg10 mi
8:55 PM81 °FSunny.5 mph58%29.97 "Hg10 mi
8:35 PM81 °FSunny.6 mph62%29.96 "Hg10 mi
8:15 PM82 °FSunny.6 mph58%29.96 "Hg10 mi
7:55 PM82 °FThundershowers. Sunny.No wind62%29.97 "Hg10 mi
7:35 PM82 °FSunny.6 mph62%29.97 "Hg10 mi
7:15 PM84 °FThunderstorms. Sunny.7 mph58%29.97 "Hg10 mi
6:55 PM84 °FThundershowers. Sunny.6 mph58%29.97 "Hg10 mi
6:35 PM86 °FThundershowers. Sunny.6 mph52%29.97 "Hg10 mi
6:15 PM84 °FSunny.5 mph58%29.96 "Hg10 mi
5:55 PM84 °FSunny.6 mph58%29.97 "Hg10 mi
5:35 PM82 °FSunny.7 mph62%29.98 "Hg10 mi
5:15 PM82 °FSunny.8 mph58%29.99 "Hg10 mi
4:55 PM81 °FThundershowers. Passing clouds.9 mph62%29.99 "Hg10 mi
4:35 PM79 °FThunderstorms. Passing clouds.9 mph65%30.00 "Hg10 mi
4:15 PM79 °FThunderstorms. Broken clouds.10 mph65%30.00 "Hg10 mi
3:55 PM79 °FThunderstorms. Broken clouds.9 mph65%30.02 "Hg10 mi
3:35 PM86 °FPassing clouds.8 mph49%30.00 "Hg10 mi
3:15 PM88 °FBroken clouds.9 mph49%30.01 "Hg10 mi
2:55 PM88 °FPartly sunny.12 mph49%30.01 "Hg10 mi
2:35 PM88 °FPartly sunny.10 mph46%30.01 "Hg10 mi
2:15 PM88 °FPassing clouds.9 mph49%30.02 "Hg10 mi
1:55 PM88 °FPassing clouds.13 mph49%30.02 "Hg10 mi
1:35 PM86 °FPassing clouds.7 mph52%30.03 "Hg10 mi
1:15 PM86 °FSunny.9 mph55%30.04 "Hg10 mi
12:55 PM84 °FSunny.7 mph62%30.04 "Hg10 mi
12:35 PM82 °FSunny.No wind66%30.05 "Hg10 mi
12:15 PM79 °FPassing clouds.6 mph70%30.05 "Hg10 mi
11:55 AM75 °FPartly sunny.5 mph74%30.07 "Hg10 mi
11:35 AM77 °FPartly sunny.6 mph65%30.08 "Hg10 mi
11:15 AM75 °FSunny.No wind74%30.07 "Hg10 mi
10:55 AM75 °FPassing clouds.5 mph74%30.07 "Hg10 mi
10:35 AM73 °FPassing clouds.3 mph78%30.07 "Hg10 mi
10:15 AM73 °FScattered clouds.No wind74%30.09 "Hg10 mi
9:55 AM73 °FMostly cloudy.6 mph69%30.08 "Hg10 mi
9:35 AM73 °FBroken clouds.6 mph69%30.08 "Hg10 mi
9:15 AM75 °FPartly sunny.6 mph65%30.07 "Hg10 mi
8:55 AM73 °FScattered clouds.7 mph69%30.07 "Hg10 mi
8:35 AM73 °FPassing clouds.5 mph69%30.06 "Hg10 mi
8:15 AM73 °FPassing clouds.6 mph69%30.06 "Hg10 mi
7:55 AM73 °FSunny.3 mph69%30.06 "Hg10 mi
7:35 AM73 °FSunny.5 mph69%30.05 "Hg10 mi
7:15 AM72 °FSunny.6 mph73%30.05 "Hg10 mi
6:55 AM70 °FClear.5 mph78%30.04 "Hg10 mi
6:35 AM70 °FClear.No wind73%30.04 "Hg10 mi
6:15 AM70 °FClear.No wind73%30.04 "Hg10 mi
5:55 AM70 °FClear.No wind73%30.04 "Hg10 mi
5:35 AM70 °FClear.3 mph73%30.03 "Hg10 mi
5:15 AM70 °FClear.5 mph73%30.04 "Hg10 mi
4:55 AM70 °FClear.5 mph73%30.04 "Hg10 mi
4:35 AM70 °FClear.5 mph73%30.04 "Hg10 mi
4:15 AM70 °FClear.5 mph73%30.04 "Hg10 mi
3:55 AM70 °FClear.3 mph73%30.04 "Hg10 mi
3:35 AM70 °FClear.No wind73%30.04 "Hg10 mi
3:15 AM70 °FClear.5 mph73%30.04 "Hg10 mi
2:55 AM72 °FClear.No wind69%30.04 "Hg10 mi
2:35 AM72 °FPassing clouds.5 mph69%30.04 "Hg10 mi
1:55 AM72 °FClear.3 mph69%30.05 "Hg10 mi
1:35 AM72 °FClear.3 mph69%30.06 "Hg10 mi
1:15 AM72 °FClear.5 mph69%30.07 "Hg10 mi
12:55 AM72 °FClear.3 mph69%30.07 "Hg10 mi
12:35 AM73 °FClear.No wind65%30.08 "Hg10 mi
12:15 AM73 °FClear.3 mph69%30.07 "Hg10 mi
11:55 PM
Wed, Jun 29
73 °FClear.3 mph69%30.07 "Hg10 mi
11:35 PM73 °FClear.5 mph65%30.07 "Hg10 mi
11:15 PM73 °FClear.5 mph65%30.06 "Hg10 mi
Weather by CustomWeather, © 2016

See weather overviewHow to use our weather pages